TimeMDT,TemperatureF,Dew PointF,Humidity,Sea Level PressureIn,VisibilityMPH,Wind Direction,Wind SpeedMPH,Gust SpeedMPH,PrecipitationIn,Events,Conditions,WindDirDegrees,DateUTC
12:52 AM,45.0,39.9,82,29.97,-9999.0,Calm,Calm,-,N/A,,Unknown,0,2013-05-24 06:52:00
1:52 AM,43.0,39.0,86,29.97,-9999.0,Calm,Calm,-,N/A,,Unknown,0,2013-05-24 07:52:00
2:52 AM,42.1,39.0,89,29.99,-9999.0,Calm,Calm,-,N/A,,Unknown,0,2013-05-24 08:52:00
3:52 AM,41.0,37.9,89,29.99,-9999.0,NW,3.5,-,N/A,,Unknown,320,2013-05-24 09:52:00
4:52 AM,39.9,37.0,89,29.99,-9999.0,Calm,Calm,-,N/A,,Unknown,0,2013-05-24 10:52:00
5:52 AM,39.0,37.0,93,30.00,-9999.0,Calm,Calm,-,N/A,,Unknown,0,2013-05-24 11:52:00
6:52 AM,39.9,37.0,89,30.02,-9999.0,Calm,Calm,-,N/A,,Unknown,0,2013-05-24 12:52:00
7:52 AM,42.1,37.9,85,30.01,-9999.0,Calm,Calm,-,N/A,,Unknown,0,2013-05-24 13:52:00
8:52 AM,45.0,37.9,76,30.01,-9999.0,North,3.5,-,N/A,,Unknown,350,2013-05-24 14:52:00
9:52 AM,50.0,39.0,66,30.00,-9999.0,Calm,Calm,-,N/A,,Unknown,0,2013-05-24 15:52:00
10:52 AM,51.1,39.0,63,30.01,-9999.0,Calm,Calm,-,N/A,,Unknown,0,2013-05-24 16:52:00
11:52 AM,52.0,42.1,69,30.01,-9999.0,Calm,Calm,-,0.01,,Unknown,0,2013-05-24 17:52:00
12:52 PM,48.9,45.0,86,30.04,-9999.0,Variable,3.5,-,0.02,,Unknown,0,2013-05-24 18:52:00
1:52 PM,48.0,45.0,89,30.07,-9999.0,Variable,4.6,-,0.07,,Unknown,0,2013-05-24 19:52:00
2:52 PM,50.0,44.1,80,30.09,-9999.0,Calm,Calm,-,0.06,,Unknown,0,2013-05-24 20:52:00
3:52 PM,57.0,44.1,62,30.06,-9999.0,Calm,Calm,-,N/A,,Unknown,0,2013-05-24 21:52:00
4:52 PM,54.0,48.0,80,30.05,-9999.0,Calm,Calm,-,N/A,,Unknown,0,2013-05-24 22:52:00
5:52 PM,48.9,46.9,93,30.09,-9999.0,Calm,Calm,-,0.05,,Unknown,0,2013-05-24 23:52:00
6:52 PM,48.9,46.0,90,30.10,-9999.0,Calm,Calm,-,N/A,,Unknown,0,2013-05-25 00:52:00
7:52 PM,48.9,46.9,93,30.09,-9999.0,Calm,Calm,-,N/A,,Unknown,0,2013-05-25 01:52:00
8:52 PM,46.0,44.1,93,30.10,-9999.0,Calm,Calm,-,N/A,,Unknown,0,2013-05-25 02:52:00
9:52 PM,45.0,44.1,97,30.11,-9999.0,Calm,Calm,-,N/A,,Unknown,0,2013-05-25 03:52:00
10:52 PM,45.0,44.1,97,30.12,-9999.0,Calm,Calm,-,N/A,,Unknown,0,2013-05-25 04:52:00
11:52 PM,45.0,44.1,97,30.11,-9999.0,Calm,Calm,-,N/A,,Unknown,0,2013-05-25 05:52:00